When you browse on this site, cookies collect data to enhance your experience and personalize the content and advertising you see.
Visit our Privacy Policy to learn more. By continuing to use the site, you agree to this use of cookies and data.
EN

Hourly Weather Gogoliha

Today, 22 September, Tuesday

Time Temperature Precipitation Wind Pressure Humidity
00:00 +10°C° 0 mm 4 mps 742 mmHg 90%
01:00 +10°C° 0 mm 4 mps 742 mmHg 89%
02:00 +10°C° 0 mm 4 mps 742 mmHg 89%
03:00 +9°C° 0 mm 5 mps 741 mmHg 89%
04:00 +10°C° 0 mm 5 mps 741 mmHg 89%
05:00 +10°C° 0 mm 5 mps 741 mmHg 90%
06:00 +12°C° 0 mm 5 mps 741 mmHg 86%
07:00 +12°C° 0 mm 5 mps 741 mmHg 82%
08:00 +13°C° 0 mm 6 mps 741 mmHg 78%
09:00 +14°C° 0 mm 6 mps 741 mmHg 73%
10:00 +15°C° 0 mm 6 mps 741 mmHg 67%
11:00 +16°C° 0 mm 6 mps 741 mmHg 61%
12:00 +16°C° 0 mm 6 mps 741 mmHg 60%
13:00 +17°C° 0 mm 6 mps 741 mmHg 58%
14:00 +17°C° 0 mm 6 mps 741 mmHg 57%
15:00 +16°C° 0 mm 5 mps 741 mmHg 61%
16:00 +15°C° 0 mm 4 mps 741 mmHg 65%
17:00 +14°C° 0 mm 3 mps 741 mmHg 70%
18:00 +13°C° 0 mm 3 mps 742 mmHg 72%
19:00 +12°C° 0 mm 3 mps 742 mmHg 75%
20:00 +11°C° 0 mm 3 mps 743 mmHg 78%
21:00 +11°C° 0 mm 3 mps 742 mmHg 78%
22:00 +11°C° 0 mm 3 mps 742 mmHg 79%
23:00 +10°C° 0 mm 3 mps 742 mmHg 79%

Tomorrow, 23 September, Wednesday

Time Temperature Precipitation Wind Pressure Humidity
00:00 +10°C° 0 mm 3 mps 743 mmHg 83%
01:00 +9°C° 0 mm 2 mps 743 mmHg 87%
02:00 +8°C° 0 mm 2 mps 744 mmHg 90%
03:00 +8°C° 0 mm 2 mps 744 mmHg 92%
04:00 +8°C° 0 mm 2 mps 744 mmHg 93%
05:00 +7°C° 0 mm 2 mps 744 mmHg 95%
06:00 +10°C° 0 mm 1 mps 745 mmHg 90%
07:00 +11°C° 0 mm 1 mps 745 mmHg 86%
08:00 +12°C° 0 mm 1 mps 745 mmHg 81%
09:00 +14°C° 0 mm 1 mps 745 mmHg 75%
10:00 +16°C° 0 mm 2 mps 745 mmHg 69%
11:00 +18°C° 0 mm 2 mps 745 mmHg 63%
12:00 +18°C° 0 mm 2 mps 745 mmHg 62%
13:00 +19°C° 0 mm 2 mps 745 mmHg 62%
14:00 +19°C° 0 mm 3 mps 745 mmHg 61%
15:00 +18°C° 0 mm 2 mps 745 mmHg 68%
16:00 +17°C° 0 mm 2 mps 745 mmHg 75%
17:00 +16°C° 0 mm 2 mps 745 mmHg 82%
18:00 +15°C° 0 mm 2 mps 745 mmHg 86%
19:00 +14°C° 0 mm 2 mps 745 mmHg 89%
20:00 +13°C° 0 mm 2 mps 745 mmHg 93%
21:00 +13°C° 0 mm 2 mps 745 mmHg 94%
22:00 +12°C° 0 mm 2 mps 745 mmHg 95%
23:00 +12°C° 0 mm 2 mps 745 mmHg 95%

Day after tomorrow, 24 September, Thursday

Time Temperature Precipitation Wind Pressure Humidity
00:00 +12°C° 0 mm 2 mps 745 mmHg 96%
01:00 +12°C° 0 mm 2 mps 745 mmHg 96%
02:00 +12°C° 0 mm 2 mps 746 mmHg 96%
03:00 +12°C° 0 mm 2 mps 746 mmHg 96%
04:00 +10°C° 0 mm 2 mps 745 mmHg 96%
05:00 +10°C° 0 mm 2 mps 745 mmHg 96%
06:00 +12°C° 0 mm 2 mps 746 mmHg 91%
07:00 +13°C° 0 mm 2 mps 746 mmHg 86%
08:00 +13°C° 0 mm 3 mps 746 mmHg 81%
09:00 +16°C° 0 mm 3 mps 746 mmHg 75%
10:00 +17°C° 0 mm 3 mps 746 mmHg 69%
11:00 +18°C° 0 mm 3 mps 747 mmHg 62%
12:00 +19°C° 0 mm 3 mps 747 mmHg 61%
13:00 +19°C° 0 mm 3 mps 747 mmHg 59%
14:00 +20°C° 0 mm 3 mps 747 mmHg 58%
15:00 +18°C° 0 mm 2 mps 747 mmHg 64%
16:00 +17°C° 0 mm 2 mps 746 mmHg 71%
17:00 +16°C° 0 mm 2 mps 746 mmHg 78%
18:00 +15°C° 0 mm 2 mps 746 mmHg 80%
19:00 +14°C° 0 mm 2 mps 747 mmHg 83%
20:00 +13°C° 0 mm 2 mps 747 mmHg 86%
21:00 +13°C° 0 mm 2 mps 747 mmHg 88%
22:00 +12°C° 0 mm 2 mps 747 mmHg 89%
23:00 +12°C° 0 mm 2 mps 747 mmHg 91%

25 September, Friday

Time Temperature Precipitation Wind Pressure Humidity
00:00 +10°C° 0 mm 2 mps 747 mmHg 92%
01:00 +10°C° 0 mm 2 mps 747 mmHg 92%
02:00 +10°C° 0 mm 2 mps 747 mmHg 93%
03:00 +9°C° 0 mm 2 mps 747 mmHg 94%
04:00 +9°C° 0 mm 2 mps 747 mmHg 94%
05:00 +9°C° 0 mm 2 mps 747 mmHg 94%
06:00 +10°C° 0 mm 2 mps 747 mmHg 89%
07:00 +12°C° 0 mm 2 mps 748 mmHg 84%
08:00 +14°C° 0 mm 2 mps 748 mmHg 79%
09:00 +15°C° 0 mm 2 mps 748 mmHg 74%
10:00 +17°C° 0 mm 2 mps 748 mmHg 68%
11:00 +19°C° 0 mm 3 mps 748 mmHg 63%
12:00 +19°C° 0 mm 3 mps 748 mmHg 61%
13:00 +20°C° 0 mm 3 mps 748 mmHg 59%
14:00 +21°C° 0 mm 3 mps 748 mmHg 57%
15:00 +19°C° 0 mm 2 mps 748 mmHg 63%
16:00 +18°C° 0 mm 2 mps 747 mmHg 70%
17:00 +16°C° 0 mm 2 mps 747 mmHg 77%
18:00 +15°C° 0 mm 2 mps 747 mmHg 79%
19:00 +14°C° 0 mm 2 mps 747 mmHg 82%
20:00 +13°C° 0 mm 2 mps 748 mmHg 85%
21:00 +13°C° 0 mm 2 mps 748 mmHg 87%
22:00 +12°C° 0 mm 2 mps 748 mmHg 89%
23:00 +12°C° 0 mm 2 mps 748 mmHg 92%

26 September, Saturday

Time Temperature Precipitation Wind Pressure Humidity
00:00 +12°C° 0 mm 2 mps 748 mmHg 93%
01:00 +10°C° 0 mm 2 mps 748 mmHg 94%
02:00 +10°C° 0 mm 2 mps 748 mmHg 95%
03:00 +10°C° 0 mm 2 mps 748 mmHg 94%
04:00 +10°C° 0 mm 2 mps 748 mmHg 94%
05:00 +10°C° 0 mm 2 mps 748 mmHg 94%
06:00 +12°C° 0 mm 2 mps 748 mmHg 89%
07:00 +12°C° 0 mm 3 mps 748 mmHg 83%
08:00 +13°C° 0 mm 3 mps 748 mmHg 77%
09:00 +16°C° 0 mm 3 mps 749 mmHg 72%
10:00 +17°C° 0 mm 3 mps 749 mmHg 67%
11:00 +19°C° 0 mm 4 mps 749 mmHg 62%
12:00 +19°C° 0 mm 4 mps 749 mmHg 60%
13:00 +20°C° 0 mm 4 mps 749 mmHg 59%
14:00 +20°C° 0 mm 4 mps 749 mmHg 57%
15:00 +19°C° 0 mm 3 mps 749 mmHg 62%
16:00 +18°C° 0 mm 3 mps 749 mmHg 67%
17:00 +16°C° 0 mm 3 mps 749 mmHg 73%
18:00 +14°C° 0 mm 3 mps 749 mmHg 73%
19:00 +13°C° 0 mm 3 mps 749 mmHg 73%
20:00 +12°C° 0 mm 3 mps 749 mmHg 74%
21:00 +12°C° 0 mm 3 mps 750 mmHg 75%
22:00 +11°C° 0 mm 3 mps 750 mmHg 76%
23:00 +10°C° 0 mm 3 mps 750 mmHg 77%

27 September, Sunday

Time Temperature Precipitation Wind Pressure Humidity
00:00 +10°C° 0 mm 3 mps 750 mmHg 78%
01:00 +10°C° 0 mm 3 mps 750 mmHg 79%
02:00 +10°C° 0 mm 3 mps 750 mmHg 80%
03:00 +10°C° 0 mm 3 mps 750 mmHg 81%
04:00 +9°C° 0 mm 3 mps 750 mmHg 83%
05:00 +9°C° 0 mm 3 mps 750 mmHg 84%
06:00 +10°C° 0 mm 3 mps 750 mmHg 81%
07:00 +11°C° 0 mm 3 mps 750 mmHg 79%
08:00 +12°C° 0 mm 3 mps 750 mmHg 76%
09:00 +14°C° 0 mm 3 mps 750 mmHg 70%
10:00 +15°C° 0 mm 4 mps 751 mmHg 64%
11:00 +18°C° 0 mm 4 mps 751 mmHg 59%
12:00 +18°C° 0 mm 4 mps 751 mmHg 55%
13:00 +19°C° 0 mm 4 mps 751 mmHg 52%
14:00 +19°C° 0 mm 4 mps 751 mmHg 48%
15:00 +18°C° 0 mm 4 mps 750 mmHg 53%
16:00 +16°C° 0 mm 3 mps 750 mmHg 59%
17:00 +14°C° 0 mm 3 mps 750 mmHg 64%
18:00 +13°C° 0 mm 3 mps 750 mmHg 65%
19:00 +12°C° 0 mm 3 mps 750 mmHg 66%
20:00 +11°C° 0 mm 4 mps 750 mmHg 67%
21:00 +11°C° 0 mm 4 mps 750 mmHg 68%
22:00 +10°C° 0 mm 3 mps 750 mmHg 69%
23:00 +10°C° 0 mm 3 mps 750 mmHg 71%
Show more